User: anonymous   Login
Location: Caltech
(34.1382°N, 118.1253°W)
Time: 08:38:19
(UTC-08:00)
Language:

Cosmos 1484 Rocket - Orbit

View from above orbital plane
View from above orbital plane
View from above satellite
View from above satellite

Ground track
Ground track

The orbit data is extracted from the following two-line orbital elements,

1 14208U 83075B   15032.19253227  .00003837  00000-0  24762-3 0  2347
2 14208 097.3987 065.7778 0040421 236.3254 123.4118 15.08180491716704
Epoch (UTC): 01 February 2015 04:37:14
Eccentricity: 0.0040421
inclination: 97.3987°
perigee height: 514 km
apogee height: 570 km
right ascension of ascending node: 65.7778°
argument of perigee: 236.3254°
revolutions per day: 15.08180491
mean anomaly at epoch: 123.4118°
orbit number at epoch: 71670

The dashed part of the orbit path shows where the satellite is in the earth's shadow,  

DLR